Ely, MN

12:07 PM CST on February 08, 2016 (GMT -0600)
Ely Municipal

Weather History for KELO - March, 2012

Change the Weather History Date:

Monday, March 26, 2012

  Actual Average Record
Temperature  
Mean Temperature 28 °F -  
Max Temperature 41 °F 37 °F 71 °F (2007)
Min Temperature 15 °F 18 °F -16 °F (2014)
Degree Days  
Heating Degree Days 37    
Moisture  
Dew Point 16 °F    
Average Humidity 63    
Maximum Humidity 86    
Minimum Humidity 31    
Precipitation  
Precipitation 0.00 in - - ()
Sea Level Pressure  
Sea Level Pressure 30.31 in    
Wind  
Wind Speed 6 mph (ESE)    
Max Wind Speed 18 mph    
Max Gust Speed 25 mph    
Visibility 10 miles    
Events      
Averages and records for this station are not official NWS values.
T = Trace of Precipitation, MM = Missing Value Source: NWS Daily Summary

Daily Weather History Graph

Daily Weather History Graph

Search for Another Location

Airport or City:

Trip Planner

Search our weather history database for the weather conditions in past years. The results will help you decide how hot, cold, wet, or windy it might be!

Date:

Astronomy

Mar. 26, 2012 Rise Set
Actual Time 6:56 AM CDT 7:29 PM CDT
Civil Twilight 6:25 AM CDT 8:00 PM CDT
Nautical Twilight 5:49 AM CDT 8:37 PM CDT
Astronomical Twilight 5:10 AM CDT 9:16 PM CDT
Moon 8:27 AM CDT (3/26) No Moon Set
Length of Visible Light 13h 34m
Length of Day
12h 32m
Waxing Crescent, 15% of the Moon is Illuminated
Mar 26
Waxing Crescent
Mar 30
First Quarter
Apr 6
Full
Apr 13
Last Quarter
Apr 21
New

Hourly Weather History & Observations

Time (CDT) Temp. Windchill Dew Point Humidity Pressure Visibility Wind Dir Wind Speed Gust Speed Precip Events Conditions
12:13 AM 24.8 °F - 15.8 °F 69% 30.35 in 10.0 mi Calm Calm - N/A   Clear
12:33 AM 24.8 °F 20.5 °F 15.8 °F 69% 30.35 in 10.0 mi ENE 3.5 mph - N/A   Clear
12:52 AM 24.8 °F - 15.8 °F 69% 30.35 in 10.0 mi Calm Calm - N/A   Clear
1:13 AM 21.2 °F - 15.8 °F 80% 30.36 in 10.0 mi Calm Calm - N/A   Clear
1:33 AM 21.2 °F - 15.8 °F 80% 30.36 in 10.0 mi Calm Calm - N/A   Clear
1:52 AM 19.4 °F - 15.8 °F 86% 30.37 in 10.0 mi Calm Calm - N/A   Clear
2:13 AM 19.4 °F - 15.8 °F 86% 30.37 in 10.0 mi Calm Calm - N/A   Clear
2:33 AM 19.4 °F - 15.8 °F 86% 30.37 in 10.0 mi Calm Calm - N/A   Clear
2:52 AM 19.4 °F - 15.8 °F 86% 30.37 in 10.0 mi Calm Calm - N/A   Clear
3:13 AM 19.4 °F - 15.8 °F 86% 30.37 in 10.0 mi Calm Calm - N/A   Clear
3:33 AM 21.2 °F - 15.8 °F 80% 30.37 in 10.0 mi Calm Calm - N/A   Clear
3:52 AM 19.4 °F - 14.0 °F 80% 30.37 in 10.0 mi Calm Calm - N/A   Clear
4:13 AM 19.4 °F - 14.0 °F 80% 30.37 in 10.0 mi Calm Calm - N/A   Clear
4:33 AM 17.6 °F - 12.2 °F 79% 30.37 in 10.0 mi Calm Calm - N/A   Clear
4:52 AM 15.8 °F - 12.2 °F 86% 30.37 in 10.0 mi Calm Calm - N/A   Clear
5:13 AM 19.4 °F 14.3 °F 14.0 °F 80% 30.36 in 10.0 mi ENE 3.5 mph - N/A   Clear
5:33 AM 19.4 °F 14.3 °F 14.0 °F 80% 30.36 in 10.0 mi ENE 3.5 mph - N/A   Clear
5:52 AM 19.4 °F 14.3 °F 15.8 °F 86% 30.36 in 10.0 mi East 3.5 mph - N/A   Clear
6:13 AM 19.4 °F - 15.8 °F 86% 30.36 in 10.0 mi Calm Calm - N/A   Clear
6:33 AM 19.4 °F 14.3 °F 15.8 °F 86% 30.36 in 10.0 mi ENE 3.5 mph - N/A   Clear
6:52 AM 19.4 °F 14.3 °F 15.8 °F 86% 30.37 in 10.0 mi ENE 3.5 mph - N/A   Clear
7:13 AM 19.4 °F 14.3 °F 15.8 °F 86% 30.38 in 10.0 mi ENE 3.5 mph - N/A   Clear
7:33 AM 19.4 °F - 15.8 °F 86% 30.37 in 10.0 mi Calm Calm - N/A   Clear
7:52 AM 19.4 °F 14.3 °F 15.8 °F 86% 30.38 in 10.0 mi East 3.5 mph - N/A   Clear
8:13 AM 24.8 °F 14.0 °F 17.6 °F 74% 30.37 in 10.0 mi ESE 11.5 mph - N/A   Clear
8:33 AM 24.8 °F 14.0 °F 17.6 °F 74% 30.37 in 10.0 mi SE 11.5 mph 17.3 mph N/A   Clear
8:52 AM 26.6 °F 16.8 °F 19.4 °F 74% 30.38 in 10.0 mi SE 10.4 mph - N/A   Clear
9:13 AM 26.6 °F 15.2 °F 19.4 °F 74% 30.37 in 10.0 mi SE 13.8 mph 18.4 mph N/A   Clear
9:32 AM 28.4 °F 16.6 °F 19.4 °F 69% 30.37 in 10.0 mi SE 16.1 mph 19.6 mph N/A   Clear
9:53 AM 28.4 °F 16.6 °F 19.4 °F 69% 30.37 in 10.0 mi SE 16.1 mph 21.9 mph N/A   Clear
10:13 AM 30.2 °F 19.3 °F 19.4 °F 64% 30.37 in 10.0 mi SSE 15.0 mph 18.4 mph N/A   Scattered Clouds
10:32 AM 30.2 °F 19.3 °F 19.4 °F 64% 30.37 in 10.0 mi SE 15.0 mph - N/A   Scattered Clouds
10:53 AM 33.8 °F 25.8 °F 19.4 °F 56% 30.36 in 10.0 mi ESE 10.4 mph - N/A   Clear
11:13 AM 33.8 °F 23.5 °F 19.4 °F 56% 30.35 in 10.0 mi SE 16.1 mph 23.0 mph N/A   Clear
11:33 AM 35.6 °F 25.9 °F 19.4 °F 52% 30.35 in 10.0 mi SE 16.1 mph 20.7 mph N/A   Clear
11:53 AM 35.6 °F 27.5 °F 19.4 °F 52% 30.35 in 10.0 mi SE 11.5 mph - N/A   Clear
12:12 PM 35.6 °F 26.2 °F 19.4 °F 52% 30.33 in 10.0 mi SE 15.0 mph - N/A   Clear
12:33 PM 35.6 °F 26.6 °F 19.4 °F 52% 30.33 in 10.0 mi ESE 13.8 mph 19.6 mph N/A   Clear
12:53 PM 37.4 °F 28.9 °F 19.4 °F 48% 30.31 in 10.0 mi SE 13.8 mph 20.7 mph N/A   Scattered Clouds
1:13 PM 39.2 °F 31.6 °F 17.6 °F 42% 30.31 in 10.0 mi SE 12.7 mph 20.7 mph N/A   Clear
1:33 PM 39.2 °F 30.8 °F 17.6 °F 42% 30.30 in 10.0 mi ESE 15.0 mph 19.6 mph N/A   Clear
1:52 PM 39.2 °F 30.5 °F 15.8 °F 39% 30.28 in 10.0 mi ESE 16.1 mph 21.9 mph N/A   Scattered Clouds
2:13 PM 39.2 °F 30.5 °F 12.2 °F 33% 30.28 in 10.0 mi SE 16.1 mph 25.3 mph N/A   Clear
2:33 PM 39.2 °F 29.8 °F 12.2 °F 33% 30.27 in 10.0 mi SE 18.4 mph 24.2 mph N/A   Clear
2:52 PM 41.0 °F 33.1 °F 12.2 °F 31% 30.26 in 10.0 mi SSE 15.0 mph 24.2 mph N/A   Clear
3:13 PM 41.0 °F 32.5 °F 12.2 °F 31% 30.24 in 10.0 mi SE 17.3 mph 23.0 mph N/A   Clear
3:33 PM 39.2 °F 31.2 °F 12.2 °F 33% 30.24 in 10.0 mi SE 13.8 mph 19.6 mph N/A   Mostly Cloudy
3:52 PM 39.2 °F 30.5 °F 14.0 °F 36% 30.23 in 10.0 mi SE 16.1 mph - N/A   Overcast
4:13 PM 37.4 °F 28.5 °F 15.8 °F 41% 30.22 in 10.0 mi SE 15.0 mph 18.4 mph N/A   Overcast
4:33 PM 39.2 °F 30.5 °F 15.8 °F 39% 30.21 in 10.0 mi SSE 16.1 mph 21.9 mph N/A   Overcast
4:52 PM 39.2 °F 30.5 °F 15.8 °F 39% 30.19 in 10.0 mi SE 16.1 mph - N/A   Overcast
5:13 PM 37.4 °F 28.9 °F 15.8 °F 41% 30.17 in 10.0 mi SE 13.8 mph 20.7 mph N/A   Overcast
5:32 PM 37.4 °F 28.9 °F 15.8 °F 41% 30.16 in 10.0 mi SE 13.8 mph - N/A   Overcast
5:52 PM 35.6 °F 27.1 °F 17.6 °F 48% 30.16 in 10.0 mi ESE 12.7 mph 20.7 mph N/A   Overcast
6:13 PM 35.6 °F 25.5 °F 17.6 °F 48% 30.14 in 10.0 mi SE 17.3 mph - N/A   Overcast
6:32 PM 35.6 °F 25.9 °F 17.6 °F 48% 30.13 in 10.0 mi SE 16.1 mph - N/A   Overcast
6:53 PM 33.8 °F 23.5 °F 19.4 °F 56% 30.12 in 10.0 mi SE 16.1 mph - N/A   Overcast
7:12 PM 33.8 °F 25.3 °F 19.4 °F 56% 30.11 in 10.0 mi SE 11.5 mph 18.4 mph N/A   Overcast
7:32 PM 33.8 °F 23.9 °F 19.4 °F 56% 30.10 in 10.0 mi SE 15.0 mph 18.4 mph N/A   Overcast
7:53 PM 33.8 °F 25.3 °F 19.4 °F 56% 30.11 in 10.0 mi SE 11.5 mph - N/A   Overcast
8:13 PM 32.0 °F 23.0 °F 19.4 °F 60% 30.09 in 10.0 mi SE 11.5 mph 18.4 mph N/A   Overcast
8:32 PM 32.0 °F 22.5 °F 21.2 °F 64% 30.07 in 10.0 mi ESE 12.7 mph - N/A   Overcast
8:53 PM 32.0 °F 21.6 °F 21.2 °F 64% 30.05 in 10.0 mi ESE 15.0 mph - N/A   Overcast
9:13 PM 32.0 °F 21.2 °F 21.2 °F 64% 30.05 in 10.0 mi SE 16.1 mph 20.7 mph N/A   Overcast
9:32 PM 32.0 °F 22.5 °F 23.0 °F 69% 30.05 in 10.0 mi SE 12.7 mph - N/A   Mostly Cloudy
9:53 PM 32.0 °F 23.0 °F 23.0 °F 69% 30.04 in 10.0 mi SE 11.5 mph 16.1 mph N/A   Scattered Clouds
10:12 PM 33.8 °F 23.9 °F 23.0 °F 65% 30.03 in 10.0 mi SE 15.0 mph 18.4 mph N/A   Mostly Cloudy
10:33 PM 33.8 °F 24.3 °F 23.0 °F 65% 30.02 in 10.0 mi SE 13.8 mph 19.6 mph N/A   Overcast
10:52 PM 33.8 °F 23.5 °F 23.0 °F 65% 30.00 in 10.0 mi SE 16.1 mph - N/A   Overcast
11:13 PM 33.8 °F 25.3 °F 24.8 °F 70% 29.99 in 7.0 mi SE 11.5 mph - 0.01 in Rain Light Rain
11:32 PM 33.8 °F 24.8 °F 24.8 °F 70% 29.97 in 10.0 mi SE 12.7 mph 17.3 mph 0.01 in   Overcast
11:53 PM 35.6 °F 27.5 °F 24.8 °F 65% 29.96 in 10.0 mi SE 11.5 mph - 0.01 in   Light Drizzle